Flag Weather past 2 weeks in Thule Air Base, Greenland

Now
23 °F

Overcast.


Feels Like: 11 °F
Forecast: 12 / 26 °F
Wind: 13 mph from Southeast

Location: Thule A. B.

Current Time: Oct 31, 2014 at 3:21:06 AM

Latest Report: Oct 31, 2014 at 2:58 AM


Visibility: N/A

Pressure: 29.98 "Hg

Humidity: 80%

Dew point: 18 °F

Location of Thule Air BaseLocation

Historic Weather in Thule Air Base — Graph

°F

Thule Air Base temperature yesterday

Maximum temperature yesterday: 28 °F (at 8:58 AM)
Minimum temperature yesterday: 21 °F (at 9:58 PM)
Average temperature yesterday: 25 °F

Past Weeks' High & Low Weather Summary

 TemperatureHumidityPressure
High28 °F (Oct 30, 8:58 AM)93% (Oct 16, 1:58 AM)30.14 "Hg (Oct 16, 1:58 AM)
Low1 °F (Oct 25, 10:58 AM)35% (Oct 24, 9:58 AM)29.40 "Hg (Oct 22, 10:58 PM)
Average13 °F76%29.78 "Hg
* Reported Oct 16 1:58 AM — Oct 31 1:58 AM, Thule Air Base, Weather by CustomWeather, © 2014

Note: Actual official high and low records may vary slightly from our data, if they occured in-between our weather recording intervals... More about our weather records

Advertising

Thule Air Base weather history for previous 24 hours

 ConditionsComfort  
Time TempWeatherWind HumidityBarometerVisibility
1:58 AM
Oct 31
23 °FOvercast.15 mph86%29.97 "HgN/A
12:58 AM23 °FOvercast.5 mph86%29.96 "HgN/A
11:58 PM
Oct 30
23 °FOvercast.5 mph86%29.95 "HgN/A
10:58 PM21 °FOvercast.9 mph86%29.93 "HgN/A
9:58 PM21 °FOvercast.5 mph93%29.91 "HgN/A
8:58 PM24 °FOvercast.3 mph85%29.89 "HgN/A
7:58 PM23 °FLight snow. Overcast.1 mph93%29.88 "HgN/A
7:03 PM23 °FMostly cloudy.No wind86%29.91 "HgN/A
6:58 PM23 °FOvercast.No wind86%29.87 "HgN/A
5:58 PM23 °FMostly cloudy.1 mph86%29.85 "HgN/A
4:59 PM25 °FMostly cloudy.5 mph86%29.87 "HgN/A
3:58 PM25 °FOvercast.No wind93%29.82 "HgN/A
2:58 PM27 °FPassing clouds.5 mph80%29.80 "HgN/A
1:58 PM27 °FPassing clouds.14 mph86%29.78 "HgN/A
1:01 PM28 °FPassing clouds.15 mph80%29.80 "Hg6 mi
12:58 PM28 °FPassing clouds.15 mph80%29.76 "HgN/A
11:58 AM28 °FPassing clouds.21 mph80%29.73 "HgN/A
10:58 AM27 °FClear.7 mph74%29.74 "HgN/A
9:58 AM28 °FClear.12 mph69%29.73 "HgN/A
8:58 AM28 °FPartly cloudy.21 mph69%29.73 "HgN/A
7:58 AM27 °FMostly cloudy.8 mph69%29.74 "HgN/A
6:58 AM27 °FMostly cloudy.12 mph69%29.74 "HgN/A
5:58 AM27 °FMostly cloudy.16 mph69%29.75 "HgN/A
4:58 AM27 °FClear.13 mph64%29.75 "HgN/A
3:58 AM25 °FPassing clouds.14 mph74%29.75 "HgN/A
Weather by CustomWeather, © 2014

See weather overviewHow to use our weather pages